[[{"header":{"parameterUnit":"m.s-1","parameterCategory":1,"la1":30.2991,"la2":30.254,"lo1":-89.0895,"lo2":-89.0444,"dy":0.0017,"dx":0.0017,"nx":28,"ny":28,"refTime":"2026-02-25T03:00:00:Z","depth":0,"parameterNumber":2,"parameterNumberName":"U-component_of_WINDS"},"data":[0,0,0,0,0,0,0,0,0,0,0,0,0,0,0,0,0,0,0,0,0,0,0,0,0,0,0,0,0,0,0,0,0,0,0,0,0,0,0,0,0,0,0,0,0,0,0,0,0,0,0,0,0,0,0,0,0,0,0.3688,0.3688,0,0.3754,0.3755,0.3756,0.3765,0.3764,0.3764,0.3763,0.3831,0.3834,0.3836,0,0,0,0,0,0,0,0,0,0,0,0,0,0.3568,0.357,0.3688,0.3689,0.3689,0.3754,0.3755,0.3756,0.3765,0.3764,0.3763,0.3763,0.383,0.3833,0.3836,0,0,0,0,0,0,0,0,0,0,0,0,0,0.3626,0.3571,0.3688,0.3702,0.3704,0.3754,0.3755,0.3756,0.3765,0.3764,0.3763,0.3762,0.3829,0.3833,0.3836,0.3877,0,0,0.3847,0.3849,0,0,0,0,0,0,0,0,0.3622,0.363,0.3699,0.3701,0.3703,0.375,0.3738,0.3797,0.3765,0.3742,0.3763,0.3762,0.3805,0.3811,0.3825,0.3881,0.3883,0.3848,0.385,0.3852,0.3853,0,0,0,0,0,0,0,0.3618,0.3627,0.3714,0.37,0.3702,0.3704,0.3712,0.3749,0.3778,0.3744,0.3745,0.3752,0.3806,0.3822,0.3827,0.3884,0.3848,0.3851,0.3853,0.3854,0.3976,0.3977,0,0,0,0,0,0,0.3612,0.3624,0.3712,0.3716,0.366,0.3707,0.3715,0.3736,0.3777,0.3783,0.3753,0.3753,0.3816,0.3823,0.3829,0.3879,0.3851,0.3855,0.3857,0.3975,0.3976,0.3977,0,0,0,0,0,0,0.3609,0.362,0.3709,0.367,0.3682,0.371,0.3734,0.3738,0.3754,0.3784,0.379,0.3764,0.3815,0.3824,0.3865,0.3882,0.3856,0.386,0.3974,0.3975,0.3977,0.398,0,0,0,0,0,0,0.3606,0.3619,0.3635,0.367,0.3684,0.3744,0.3735,0.374,0.376,0.376,0.3796,0.3801,0.3815,0.386,0.3869,0.3886,0.3863,0.3972,0.3974,0.3976,0.3979,0.3982,0.3984,0,0,0,0,0,0.3601,0.3633,0.3635,0.3646,0.3704,0.3745,0.3753,0.3769,0.3761,0.3777,0.3797,0.38,0.3878,0.3864,0.3874,0.3893,0.3971,0.3974,0.3976,0.3978,0.3981,0.3984,0,0,0,0,0,0,0.3599,0.3638,0.3641,0.3685,0.3712,0.3747,0.3768,0.3772,0.3802,0.38,0.3819,0.3827,0.3867,0.3884,0.3867,0.3934,0.3924,0.3929,0.3922,0.3925,0.3928,0.3923,0.3866,0,0,0,0,0,0.3603,0.3633,0.3666,0.3702,0.3715,0.3739,0.3757,0.3767,0.3795,0.3807,0.3829,0.3857,0.3887,0.3907,0.3937,0.3981,0.3989,0.3999,0.4002,0.4004,0.4008,0.4032,0.4036,0.3985,0.3985,0.3985,0,0,0.3613,0.3638,0.3656,0.3702,0.3724,0.3754,0.3748,0.3781,0.3804,0.3812,0.3852,0.3869,0.3901,0.3943,0.3963,0.3959,0.4023,0.4007,0.4008,0.4011,0.4035,0.4039,0.4044,0.3987,0.3987,0.3986,0,0,0.3646,0.3668,0.3701,0.3722,0.3755,0.3771,0.3778,0.3812,0.3824,0.3865,0.3871,0.3898,0.3951,0.3973,0.3991,0.4031,0.4035,0.4041,0.4055,0.4078,0.4082,0.4086,0.41,0.4105,0.4044,0.4044,0.4044,0,0.3654,0.37,0.3716,0.3749,0.3768,0.3777,0.3809,0.383,0.387,0.3884,0.3878,0.3944,0.3966,0.4013,0.4023,0.4037,0.4046,0.4037,0.4081,0.4084,0.4088,0.4102,0.4107,0.4045,0.4045,0.4045,0.4045,0,0.3708,0.374,0.3762,0.3801,0.3824,0.3856,0.3876,0.3897,0.3904,0.392,0.3961,0.3987,0.4023,0.4034,0.4042,0.4083,0.4079,0.4077,0.4067,0.4093,0.4106,0.4112,0.4045,0.4045,0.4045,0.4045,0,0,0.3742,0.379,0.3797,0.3815,0.3851,0.3876,0.3908,0.3943,0.396,0.3987,0.4015,0.4059,0.4057,0.4077,0.4087,0.4107,0.4137,0.4103,0.4104,0.4108,0.4183,0.4184,0.419,0.414,0.4141,0.4142,0.418,0,0.378,0.3838,0.3853,0.3902,0.3931,0.3939,0.3967,0.3992,0.4008,0.4035,0.4052,0.4083,0.4078,0.409,0.411,0.4129,0.4153,0.4127,0.4165,0.4166,0.4157,0.4197,0.4199,0.4234,0.4185,0.4186,0.4187,0,0.3831,0.386,0.3912,0.3944,0.3957,0.3982,0.4014,0.404,0.4068,0.4078,0.4101,0.4109,0.4142,0.413,0.4176,0.4158,0.4174,0.4186,0.4188,0.4192,0.4178,0.4203,0.4246,0.4251,0.4195,0.4195,0.4194,0,0.3851,0.3902,0.394,0.3955,0.3993,0.401,0.4027,0.4055,0.4074,0.4102,0.4115,0.4146,0.4164,0.4188,0.4204,0.4194,0.4248,0.4238,0.4257,0.4257,0.4269,0.4268,0.4315,0.4279,0.4279,0.4279,0.4279,0,0.3891,0.3922,0.3949,0.3972,0.4008,0.4024,0.4059,0.4075,0.41,0.4126,0.4135,0.4159,0.4179,0.4206,0.4219,0.4255,0.4262,0.4271,0.4274,0.427,0.4269,0.4282,0.428,0.428,0.428,0.428,0.428,0,0.3919,0.3938,0.3979,0.4012,0.4021,0.4046,0.4074,0.4096,0.4112,0.4145,0.4153,0.4178,0.421,0.4228,0.4269,0.4277,0.4317,0.4319,0.4308,0.4309,0.4327,0.4325,0.4385,0.4393,0.4351,0.4351,0.4352,0,0.3943,0.3967,0.4003,0.4021,0.4038,0.4068,0.4087,0.4104,0.4125,0.4158,0.4177,0.4209,0.4236,0.4287,0.4308,0.4339,0.4342,0.436,0.4346,0.4342,0.4342,0.434,0.4343,0.4363,0.4363,0.4363,0.4364,0,0.3984,0.3992,0.4021,0.4053,0.4076,0.4102,0.4127,0.4141,0.4163,0.4185,0.4218,0.4239,0.428,0.4312,0.4344,0.4361,0.4366,0.4368,0.4374,0.437,0.4363,0.4367,0.4314,0.4366,0.4366,0.4366,0.4366,0.4366,0.4011,0.4033,0.4061,0.4092,0.4113,0.4137,0.4159,0.4178,0.4206,0.4241,0.4249,0.4283,0.431,0.4354,0.4372,0.4399,0.4395,0.4404,0.4407,0.4409,0.4409,0.4358,0.4405,0.4405,0.4405,0.4404,0.4404,0,0.4053,0.4071,0.41,0.4135,0.4159,0.4162,0.419,0.421,0.424,0.4265,0.4291,0.4329,0.436,0.4383,0.4415,0.4432,0.4435,0.4439,0.4438,0.4442,0.441,0.4402,0.4437,0.4437,0.4437,0.4436,0.4436,0.4436,0.4077,0.4114,0.4126,0.4173,0.4191,0.4225,0.4241,0.4262,0.4282,0.4324,0.435,0.4365,0.4389,0.4422,0.445,0.4456,0.4467,0.4472,0.4478,0.4448,0.4444,0.4441,0.4433,0.4474,0.4474,0.4508,0.4508,0.4508]},{"header":{"parameterUnit":"m.s-1","parameterCategory":1,"la1":30.2991,"la2":30.254,"lo1":-89.0895,"lo2":-89.0444,"dy":0.0017,"dx":0.0017,"nx":28,"ny":28,"refTime":"2026-02-25T03:00:00:Z","depth":0,"parameterNumber":3,"parameterNumberName":"V-component_of_WINDS"},"data":[0,0,0,0,0,0,0,0,0,0,0,0,0,0,0,0,0,0,0,0,0,0,0,0,0,0,0,0,0,0,0,0,0,0,0,0,0,0,0,0,0,0,0,0,0,0,0,0,0,0,0,0,0,0,0,0,0,0,4.0111,4.0111,0,4.0136,4.0137,4.0137,4.0154,4.0154,4.0154,4.0154,4.0178,4.0178,4.0179,0,0,0,0,0,0,0,0,0,0,0,0,0,4.0074,4.0074,4.0111,4.0111,4.0111,4.0136,4.0137,4.0137,4.0154,4.0154,4.0154,4.0154,4.0178,4.0178,4.0179,0,0,0,0,0,0,0,0,0,0,0,0,0,4.0093,4.0074,4.0111,4.0123,4.0124,4.0136,4.0137,4.0137,4.0154,4.0154,4.0154,4.0154,4.0177,4.0178,4.0179,4.018,0,0,4.0181,4.0182,0,0,0,0,0,0,0,0,4.0092,4.0095,4.0121,4.0122,4.0123,4.0142,4.0132,4.0152,4.0154,4.0142,4.0154,4.0154,4.0166,4.0167,4.0172,4.0181,4.0182,4.0181,4.0182,4.0182,4.0182,0,0,0,0,0,0,0,4.0091,4.0094,4.0121,4.0121,4.0123,4.0126,4.0129,4.0136,4.0153,4.0143,4.0145,4.0148,4.0166,4.0171,4.0172,4.0183,4.0181,4.0182,4.0183,4.0183,4.0196,4.0196,0,0,0,0,0,0,4.0088,4.0092,4.012,4.0122,4.0108,4.0127,4.013,4.0136,4.0153,4.0155,4.0147,4.0148,4.0169,4.0171,4.0173,4.0177,4.0182,4.0183,4.0183,4.0196,4.0196,4.0196,0,0,0,0,0,0,4.0087,4.009,4.0119,4.0107,4.0111,4.0127,4.0134,4.0136,4.0141,4.0156,4.0158,4.0149,4.017,4.0172,4.0179,4.0178,4.0183,4.0184,4.0196,4.0196,4.0196,4.0183,0,0,0,0,0,0,4.0086,4.009,4.0091,4.0107,4.0112,4.0125,4.0133,4.0137,4.0143,4.0144,4.0158,4.0161,4.017,4.0178,4.018,4.0179,4.0185,4.0196,4.0196,4.0196,4.0183,4.0182,4.0181,0,0,0,0,0,4.0085,4.0085,4.0091,4.0094,4.0114,4.0124,4.0127,4.0139,4.0142,4.0143,4.0153,4.016,4.0177,4.0178,4.0181,4.018,4.0196,4.0196,4.0196,4.0184,4.0183,4.0181,0,0,0,0,0,0,4.0067,4.0088,4.0094,4.01,4.0111,4.0127,4.0129,4.0137,4.0145,4.0146,4.0159,4.0162,4.0168,4.0174,4.0175,4.0183,4.0188,4.0188,4.0178,4.0177,4.0176,4.0174,4.0185,0,0,0,0,0,4.0064,4.0072,4.0089,4.0093,4.0098,4.0113,4.0118,4.0126,4.0137,4.0141,4.0151,4.016,4.0168,4.0173,4.0181,4.0185,4.0188,4.0185,4.0184,4.0183,4.0183,4.0187,4.0186,4.0195,4.0195,4.0195,0,0,4.0058,4.007,4.0074,4.009,4.0099,4.0106,4.0116,4.0123,4.0129,4.0142,4.0149,4.0157,4.0168,4.0174,4.0177,4.018,4.0182,4.0183,4.0182,4.0183,4.0186,4.0185,4.0185,4.0194,4.0194,4.0194,0,0,4.005,4.006,4.0065,4.0074,4.0088,4.0098,4.0099,4.0115,4.0121,4.0129,4.0139,4.0145,4.0158,4.0166,4.0172,4.0169,4.0175,4.0171,4.0165,4.0168,4.0167,4.0166,4.0165,4.0165,4.0171,4.017,4.017,0,4.004,4.0052,4.0066,4.0073,4.008,4.0094,4.0099,4.0106,4.0122,4.0126,4.0129,4.0146,4.0155,4.0163,4.0162,4.0166,4.0168,4.0169,4.0166,4.0166,4.0165,4.0165,4.0164,4.017,4.017,4.017,4.017,0,4.004,4.0048,4.005,4.0066,4.0073,4.0079,4.0093,4.0099,4.0107,4.0116,4.0124,4.0135,4.0145,4.0148,4.0155,4.0157,4.0159,4.0164,4.0169,4.0164,4.0163,4.0163,4.0169,4.0169,4.0169,4.0169,0,0,4.0021,4.0046,4.0046,4.0054,4.0071,4.0077,4.0084,4.0096,4.01,4.011,4.0116,4.0127,4.0132,4.0139,4.0147,4.015,4.0147,4.0155,4.0155,4.0153,4.015,4.0146,4.0146,4.0152,4.0152,4.0152,4.0149,0,4.0016,4.0029,4.0042,4.0051,4.0059,4.0073,4.0078,4.0089,4.0098,4.0105,4.0115,4.0123,4.0129,4.0133,4.0137,4.0146,4.0146,4.0147,4.0157,4.0157,4.0153,4.0145,4.0141,4.0138,4.0149,4.0149,4.0149,0,4.0011,4.0023,4.0033,4.005,4.0054,4.0059,4.0071,4.0078,4.0091,4.0097,4.0105,4.0114,4.0121,4.0126,4.0136,4.0136,4.0141,4.0146,4.0146,4.0147,4.0153,4.0147,4.0138,4.0137,4.0149,4.0149,4.0149,0,3.9997,4.0015,4.0023,4.0029,4.005,4.0053,4.0061,4.0074,4.0081,4.0091,4.0095,4.0106,4.0111,4.0119,4.0131,4.0133,4.0139,4.0145,4.0145,4.0144,4.0145,4.0145,4.0137,4.0148,4.0148,4.0148,4.0148,0,3.999,3.9996,4.0017,4.0022,4.0029,4.0044,4.005,4.0059,4.0071,4.0077,4.0089,4.0095,4.011,4.0118,4.0127,4.0134,4.0136,4.0141,4.0143,4.014,4.0139,4.0143,4.0144,4.0148,4.0148,4.0148,4.0148,0,3.9975,3.999,4.0,4.0019,4.0024,4.0028,4.0044,4.0049,4.0059,4.0068,4.0071,4.0086,4.0096,4.0108,4.0121,4.0127,4.0133,4.0137,4.013,4.0131,4.013,4.013,4.0124,4.0124,4.0135,4.0135,4.0135,0,3.997,3.9975,3.9995,4.0001,4.001,4.0019,4.0026,4.0041,4.0048,4.0063,4.0066,4.0077,4.0087,4.0101,4.0113,4.0123,4.0127,4.0125,4.0129,4.0126,4.0128,4.0127,4.0128,4.0124,4.0123,4.0123,4.0123,0,3.9959,3.9967,3.9977,3.9991,3.9999,4.001,4.0021,4.0025,4.0042,4.0049,4.006,4.0068,4.0082,4.0092,4.0105,4.0112,4.012,4.0122,4.0122,4.0119,4.0115,4.0117,4.0127,4.0122,4.0122,4.0122,4.0122,4.0122,3.9949,3.9954,3.997,3.9981,3.9992,4.0002,4.0009,4.002,4.003,4.0044,4.0052,4.0062,4.0075,4.0092,4.01,4.0108,4.0111,4.0111,4.0111,4.0111,4.0111,4.0114,4.011,4.011,4.011,4.011,4.011,0,3.9939,3.995,3.9961,3.9977,3.9986,3.9995,4.0008,4.0014,4.0024,4.0036,4.0046,4.0058,4.0069,4.0082,4.0093,4.0097,4.0101,4.01,4.0099,4.0101,4.0107,4.0106,4.0096,4.0096,4.0096,4.0096,4.0096,4.0096,3.9935,3.9945,3.9954,3.9969,3.998,3.9991,3.9998,4.0008,4.0018,4.0032,4.0041,4.005,4.0063,4.0075,4.0085,4.0089,4.0092,4.009,4.0094,4.0099,4.0101,4.0102,4.0101,4.009,4.009,4.0088,4.0088,4.0088]}]]